TimeEDT,TemperatureF,Dew PointF,Humidity,Sea Level PressureIn,VisibilityMPH,Wind Direction,Wind SpeedMPH,Gust SpeedMPH,PrecipitationIn,Events,Conditions,WindDirDegrees,DateUTC
12:53 AM,71.1,70.0,96,29.99,10.0,Calm,Calm,-,N/A,,Partly Cloudy,0,2013-05-01 04:53:00
1:53 AM,75.0,71.1,87,29.97,10.0,ESE,6.9,-,N/A,,Scattered Clouds,120,2013-05-01 05:53:00
2:53 AM,75.0,71.1,87,29.95,10.0,SE,5.8,-,N/A,,Partly Cloudy,140,2013-05-01 06:53:00
3:53 AM,75.0,71.1,87,29.94,10.0,SE,3.5,-,N/A,,Clear,130,2013-05-01 07:53:00
4:53 AM,75.0,72.0,90,29.95,10.0,ENE,3.5,-,N/A,,Mostly Cloudy,70,2013-05-01 08:53:00
5:02 AM,75.2,71.6,89,29.94,10.0,East,3.5,-,N/A,,Overcast,90,2013-05-01 09:02:00
5:17 AM,75.2,71.6,89,29.94,10.0,ESE,4.6,-,N/A,,Overcast,120,2013-05-01 09:17:00
5:53 AM,75.0,71.1,87,29.94,10.0,SE,4.6,-,N/A,,Clear,130,2013-05-01 09:53:00
6:53 AM,75.0,71.1,87,29.96,10.0,ESE,4.6,-,N/A,,Partly Cloudy,110,2013-05-01 10:53:00
7:53 AM,78.1,72.0,81,29.99,10.0,ESE,4.6,-,N/A,,Clear,120,2013-05-01 11:53:00
8:14 AM,77.0,71.6,83,29.98,10.0,Calm,Calm,-,N/A,,Mostly Cloudy,0,2013-05-01 12:14:00
8:38 AM,78.8,71.6,78,29.98,10.0,East,6.9,-,N/A,,Overcast,100,2013-05-01 12:38:00
8:53 AM,79.0,71.1,77,29.98,10.0,East,6.9,-,N/A,,Mostly Cloudy,100,2013-05-01 12:53:00
9:53 AM,80.1,72.0,76,29.99,10.0,ESE,8.1,-,N/A,,Clear,120,2013-05-01 13:53:00
10:53 AM,80.1,71.1,74,30.01,10.0,ESE,9.2,-,N/A,,Mostly Cloudy,110,2013-05-01 14:53:00
11:53 AM,81.0,71.1,72,30.01,10.0,SE,10.4,-,N/A,,Partly Cloudy,140,2013-05-01 15:53:00
12:53 PM,82.0,71.1,69,29.99,10.0,SE,9.2,-,N/A,,Partly Cloudy,130,2013-05-01 16:53:00
1:53 PM,82.0,71.1,69,29.96,10.0,East,12.7,-,N/A,,Mostly Cloudy,100,2013-05-01 17:53:00
2:53 PM,81.0,71.1,72,29.96,10.0,SE,13.8,-,N/A,,Overcast,130,2013-05-01 18:53:00
3:53 PM,78.1,73.0,84,29.96,10.0,SE,8.1,-,N/A,Rain,Light Rain,130,2013-05-01 19:53:00
4:53 PM,78.1,72.0,81,29.96,10.0,Calm,Calm,-,N/A,Rain,Light Rain,0,2013-05-01 20:53:00
5:09 PM,78.8,73.4,83,29.96,1.0,West,13.8,21.9,0.06,Rain,Rain,270,2013-05-01 21:09:00
5:17 PM,73.4,71.6,94,29.98,2.0,Variable,3.5,23.0,0.28,Rain,Heavy Rain,0,2013-05-01 21:17:00
5:35 PM,73.4,71.6,94,29.93,6.0,ENE,9.2,-,N/A,Rain,Rain,70,2013-05-01 21:35:00
5:53 PM,73.0,72.0,96,29.94,8.0,NE,6.9,-,N/A,Rain,Light Rain,40,2013-05-01 21:53:00
6:53 PM,73.0,73.0,100,29.96,10.0,East,3.5,-,0.01,,Overcast,80,2013-05-01 22:53:00
7:53 PM,73.0,73.0,100,29.96,10.0,NNE,3.5,-,0.00,,Overcast,20,2013-05-01 23:53:00
8:53 PM,73.0,73.0,100,29.97,10.0,NNW,5.8,-,N/A,,Mostly Cloudy,340,2013-05-02 00:53:00
9:53 PM,72.0,71.1,97,29.97,10.0,NNE,3.5,-,N/A,,Scattered Clouds,30,2013-05-02 01:53:00
10:53 PM,73.0,72.0,96,29.98,10.0,ENE,4.6,-,N/A,,Mostly Cloudy,60,2013-05-02 02:53:00
11:53 PM,75.0,72.0,90,29.96,10.0,ENE,4.6,-,N/A,,Overcast,60,2013-05-02 03:53:00